Location: Eenumerhoogte
(53.3420°N, 6.7843°E)
Time: 08:15:38
(UTC+00:00)

Helios 1A - Pass Details

Date: 15 May 2026
Orbit: 540 x 559 km, 98.2° (Epoch: 5 June)

Event Time Altitude Azimuth Distance (km) Brightness Sun altitude
Rises 22:09:42 0° 15° (NNE) 2,719 7.3 -15.6°
Reaches altitude 10° 22:11:50 10° 16° (NNE) 1,820 6.3 -15.7°
Maximum altitude 22:15:46 83° 104° (ESE) 553 2.7 -15.9°
Enters shadow 22:17:45 28° 191° (SSW) 1,031 3.7 -16.0°
